Simultaneous Nadir Overpasses (SNOs) Predictions

Prediction of SNOs between AQUA and GOES-15 Satellite Orbit:

Table of predicted SNOs for the next 14.0 days since TLE Epoch: 11/1/2013
Index Date Time (AQUA) AQUA Lat,Lon GOES-15 Lat,Lon Distance(km) Time Diff (sec)
1 11/03/2013 10:32:16 -0.09,-134.20 0.09,-135.07 99.56 80
2 11/03/2013 22:53:42 -1.00,-139.40 -0.06,-135.02 497.87 80
3 11/05/2013 10:20:10 -0.72,-131.26 0.10,-135.13 439.66 80
4 11/05/2013 22:41:36 -0.36,-136.46 -0.07,-135.07 157.95 80
5 11/07/2013 22:29:29 0.25,-133.52 -0.07,-135.12 181.36 80
6 11/08/2013 10:50:47 0.76,-138.70 0.04,-135.20 397.43 80
7 11/10/2013 10:38:39 0.17,-135.75 0.05,-135.24 58.33 80
8 11/12/2013 10:26:31 -0.45,-132.81 0.05,-135.28 280.78 80
9 11/12/2013 22:47:56 -0.60,-138.01 -0.02,-135.22 316.92 80
10 11/14/2013 22:35:47 0.00,-135.06 -0.03,-135.26 22.11 80




NCC Satellite Simultaneous Nadir Overpasses (SNOs) Prediction Service
